This demonstration page uses our WeatherBlox Daily Observations layout. Learn more.

Left ArrowRight Arrow

53.62937, 11.41316

Hourly Observations for July 31, 2022

Temp ( °F °C ) Dew Point ( °F °C ) Humidity (%) Winds ( mph kmh ) Pressure ( in mb ) Visibility ( mi km ) Precip ( " mm )
12:20 am 00:20 Mostly Clear 63 17 57 14 83 83 W 3 6 30.03 1017 30 48 N/A
12:50 am 00:50 Mostly Cloudy 64 18 57 14 78 78 W 5 7 30.03 1017 30 48 N/A
1:20 am 01:20 Mostly Cloudy 63 17 57 14 83 83 W 6 9 30.03 1017 30 48 N/A
1:50 am 01:50 Mostly Clear 63 17 59 15 88 88 W 5 7 30.03 1017 30 48 N/A
2:20 am 02:20 Mostly Cloudy 61 16 59 15 94 94 VRB 2 4 30.03 1017 30 48 N/A
2:50 am 02:50 Cloudy 63 17 59 15 88 88 VRB 2 4 30.03 1017 30 48 N/A
3:20 am 03:20 Cloudy 63 17 61 16 94 94 W 5 7 30.03 1017 30 48 N/A
3:50 am 03:50 Cloudy 63 17 59 15 88 88 W 3 6 30.03 1017 6 9 N/A
4:20 am 04:20 Cloudy 61 16 59 15 94 94 W 5 7 30.00 1016 5 8 N/A
4:50 am 04:50 Mostly Cloudy 61 16 59 15 94 94 W 5 7 30.03 1017 4 7 N/A
5:20 am 05:20 Cloudy 61 16 59 15 94 94 WNW 6 9 30.00 1016 4 6 N/A
5:50 am 05:50 Cloudy 61 16 59 15 94 94 VRB 2 4 30.00 1016 4 7 N/A
6:20 am 06:20 Mostly Cloudy 61 16 59 15 94 94 VRB 2 4 30.00 1016 4 6 N/A
6:50 am 06:50 Mostly Cloudy 61 16 59 15 94 94 W 3 6 30.00 1016 4 6 N/A
7:20 am 07:20 Mostly Cloudy 61 16 59 15 94 94 WNW 6 9 30.03 1017 4 6 N/A
7:50 am 07:50 Mostly Cloudy 61 16 59 15 94 94 WNW 3 6 30.00 1016 4 7 N/A
8:20 am 08:20 Mostly Cloudy 63 17 59 15 88 88 WNW 5 7 30.00 1016 30 48 N/A
8:50 am 08:50 Partly Cloudy 64 18 59 15 83 83 WNW 3 6 30.00 1016 30 48 N/A
9:20 am 09:20 Mostly Sunny 66 19 59 15 78 78 VRB 2 4 30.00 1016 7 11 N/A
9:50 am 09:50 Mostly Sunny 68 20 59 15 73 73 VRB 3 6 30.00 1016 7 11 N/A
10:20 am 10:20 Mostly Sunny 70 21 57 14 64 64 VRB 3 6 30.00 1016 7 11 N/A
10:50 am 10:50 Mostly Sunny 70 21 59 15 69 69 SSW 3 6 30.00 1016 7 11 N/A
11:20 am 11:20 Mostly Sunny 70 21 59 15 69 69 VRB 5 7 30.00 1016 7 11 N/A
11:50 am 11:50 Mostly Sunny 70 21 57 14 64 64 VRB 5 7 30.00 1016 7 11 N/A
12:20 pm 12:20 Mostly Sunny 73 23 55 13 53 53 VRB 5 7 30.00 1016 7 11 N/A
12:50 pm 12:50 Mostly Sunny 75 24 57 14 54 54 W 8 13 29.97 1015 7 11 N/A
1:20 pm 13:20 Mostly Sunny 77 25 55 13 47 47 VRB 5 7 29.97 1015 7 11 N/A
1:50 pm 13:50 Mostly Sunny 75 24 54 12 47 47 VRB 6 9 29.97 1015 30 48 N/A
2:20 pm 14:20 Mostly Sunny 77 25 55 13 47 47 WSW 6 9 29.97 1015 30 48 N/A
2:50 pm 14:50 Mostly Sunny 77 25 54 12 44 44 VRB 5 7 29.94 1014 30 48 N/A
3:20 pm 15:20 Mostly Sunny 77 25 54 12 44 44 VRB 6 9 29.94 1014 7 11 N/A
3:50 pm 15:50 Mostly Sunny 79 26 54 12 42 42 VRB 5 7 29.91 1013 7 11 N/A
4:20 pm 16:20 Mostly Sunny 77 25 54 12 44 44 VRB 7 11 29.91 1013 7 11 N/A
4:50 pm 16:50 Mostly Sunny 79 26 54 12 42 42 VRB 5 7 29.91 1013 7 11 N/A
5:20 pm 17:20 Mostly Sunny 77 25 54 12 44 44 VRB 5 7 29.91 1013 7 11 N/A
5:50 pm 17:50 Partly Cloudy with Light Rain 75 24 57 14 54 54 VRB 3 6 29.91 1013 30 48 N/A
6:20 pm 18:20 Partly Cloudy with Light Rain 72 22 61 16 69 69 W 3 6 29.91 1013 30 48 N/A
6:50 pm 18:50 Mostly Cloudy with Rain 66 19 63 17 88 88 W 5 7 29.91 1013 6 9 N/A
7:20 pm 19:20 Partly Cloudy with Light Rain 66 19 63 17 88 88 VRB 1 2 29.91 1013 6 9 N/A
7:50 pm 19:50 Partly Cloudy with Light Rain 66 19 64 18 94 94 Calm 29.91 1013 30 48 N/A
8:20 pm 20:20 Mostly Cloudy 66 19 64 18 94 94 Calm 29.91 1013 30 48 N/A
8:50 pm 20:50 Mostly Cloudy with Rain 64 18 63 17 94 94 VRB 2 4 29.91 1013 4 6 N/A
9:20 pm 21:20 Mostly Cloudy 64 18 64 18 100 100 SSE 3 6 29.91 1013 3 5 N/A
9:50 pm 21:50 Mostly Cloudy 64 18 63 17 94 94 VRB 3 6 29.91 1013 5 8 N/A
10:20 pm 22:20 Mostly Cloudy 64 18 63 17 94 94 VRB 2 4 29.91 1013 30 48 N/A
10:50 pm 22:50 Mostly Cloudy 64 18 63 17 94 94 SSE 5 7 29.88 1012 3 5 N/A
11:20 pm 23:20 Mostly Cloudy 63 17 63 17 100 100 VRB 2 4 29.88 1012 3 4 N/A
11:50 pm 23:50 Partly Cloudy 63 17 63 17 100 100 S 3 6 29.88 1012 2 4 N/A

Powered by AerisWeather